HS7AT-11 Weather Reports


Display with metric or nautical units.
time (UTC)temp
F
wind
direction
speed
MPH
gust
MPH
rain 1hr
in
rain 24hr
in
rain mn
in
humidity
%
barometer
mb
20211208024541 94 112 3.0 6.0 0.00 0.00 0.00 62 1018.4
20211208024236 93 112 3.0 7.0 0.00 0.00 0.00 63 1018.4
20211208023930 93 112 1.0 7.0 0.00 0.00 0.00 64 1018.5
20211208023625 92 112 2.0 7.0 0.00 0.00 0.00 65 1018.4
20211208023320 91 112 6.0 7.0 0.00 0.00 0.00 67 1018.4
20211208023014 91 112 3.0 4.0 0.00 0.00 0.00 68 1018.4
20211208022709 90 112 4.0 7.0 0.00 0.00 0.00 68 1018.3
20211208022404 90 112 4.0 7.0 0.00 0.00 0.00 69 1018.3
20211208022059 90 112 2.0 9.0 0.00 0.00 0.00 70 1018.4
20211208021754 89 112 3.0 9.0 0.00 0.00 0.00 71 1018.3
20211208021449 89 112 4.0 6.0 0.00 0.00 0.00 71 1018.3
20211208021144 88 112 3.0 4.0 0.00 0.00 0.00 72 1018.2
20211208020838 88 112 4.0 8.0 0.00 0.00 0.00 72 1018.3
20211208020533 88 112 2.0 6.0 0.00 0.00 0.00 74 1018.3
20211208020228 88 112 4.0 9.0 0.00 0.00 0.00 74 1018.3
20211208015923 87 112 3.0 12.0 0.00 0.00 0.00 76 1018.3
20211208015618 87 112 4.0 12.0 0.00 0.00 0.00 77 1018.3
20211208015313 86 112 5.0 7.0 0.00 0.00 0.00 78 1018.3
20211208015008 86 112 5.0 5.0 0.00 0.00 0.00 79 1018.3
20211208014703 85 112 0.0 3.0 0.00 0.00 0.00 80 1018.3
20211208014358 85 112 1.0 5.0 0.00 0.00 0.00 80 1018.3
20211208014052 84 112 3.0 8.0 0.00 0.00 0.00 81 1018.2
20211208013747 84 112 4.0 8.0 0.00 0.00 0.00 82 1018.3
20211208013442 83 112 4.0 5.0 0.00 0.00 0.00 83 1018.2
20211208013137 83 112 3.0 3.0 0.00 0.00 0.00 84 1018.2
20211208012832 82 112 1.0 4.0 0.00 0.00 0.00 85 1018.2
20211208012527 81 112 1.0 1.0 0.00 0.00 0.00 86 1018.1
20211208012222 80 112 1.0 1.0 0.00 0.00 0.00 85 1018.1
20211208011917 80 112 1.0 2.0 0.00 0.00 0.00 86 1018.1
20211208011611 79 112 2.0 3.0 0.00 0.00 0.00 86 1017.9
20211208011306 78 112 1.0 1.0 0.00 0.00 0.00 86 1017.9
20211208011001 78 112 1.0 4.0 0.00 0.00 0.00 85 1017.9
20211208010656 77 112 1.0 3.0 0.00 0.00 0.00 85 1017.8
20211208010351 76 112 1.0 3.0 0.00 0.00 0.00 86 1017.8
20211208010045 76 112 0.0 1.0 0.00 0.00 0.00 85 1017.9
20211208005740 75 112 0.0 0.0 0.00 0.00 0.00 85 1017.8
20211208005435 75 112 0.0 2.0 0.00 0.00 0.00 85 1017.8
20211208005130 74 112 0.0 0.0 0.00 0.00 0.00 84 1017.7
20211208004825 74 112 0.0 0.0 0.00 0.00 0.00 84 1017.7
20211208004519 74 112 0.0 0.0 0.00 0.00 0.00 84 1017.7
20211208004214 73 112 0.0 0.0 0.00 0.00 0.00 84 1017.7
20211208003909 73 112 0.0 0.0 0.00 0.00 0.00 84 1017.7
20211208003604 73 112 0.0 0.0 0.00 0.00 0.00 83 1017.6
20211208003259 73 112 0.0 0.0 0.00 0.00 0.00 83 1017.5
20211208002954 73 112 0.0 0.0 0.00 0.00 0.00 83 1017.6
20211208002649 73 112 0.0 0.0 0.00 0.00 0.00 83 1017.5
20211208002344 73 112 0.0 0.0 0.00 0.00 0.00 83 1017.6
20211208002039 73 112 0.0 0.0 0.00 0.00 0.00 83 1017.4
20211208001733 73 112 0.0 0.0 0.00 0.00 0.00 83 1017.4
20211208001428 73 112 0.0 0.0 0.00 0.00 0.00 83 1017.3
20211208001123 73 112 0.0 0.0 0.00 0.00 0.00 83 1017.3
20211208000818 72 112 0.0 0.0 0.00 0.00 0.00 83 1017.2
20211208000513 73 112 0.0 0.0 0.00 0.00 0.00 83 1017.2
20211208000208 73 112 0.0 0.0 0.00 0.00 0.00 83 1017.3
20211207235903 73 112 0.0 0.0 0.00 0.00 0.00 83 1017.1
20211207235558 73 112 0.0 0.0 0.00 0.00 0.00 83 1017.2
20211207235252 73 112 0.0 0.0 0.00 0.00 0.00 83 1017.1
20211207234947 73 112 0.0 1.0 0.00 0.00 0.00 83 1017.1
20211207234642 73 112 1.0 1.0 0.00 0.00 0.00 83 1017.0
20211207234337 73 112 0.0 0.0 0.00 0.00 0.00 82 1016.9
20211207234032 73 112 0.0 0.0 0.00 0.00 0.00 83 1016.9
20211207233727 73 112 0.0 0.0 0.00 0.00 0.00 83 1016.9
20211207233422 73 112 0.0 0.0 0.00 0.00 0.00 83 1016.8
20211207233117 73 112 0.0 1.0 0.00 0.00 0.00 83 1016.8
20211207232811 73 112 0.0 0.0 0.00 0.00 0.00 83 1016.8
20211207232506 73 112 0.0 1.0 0.00 0.00 0.00 83 1016.7
20211207232200 73 112 0.0 1.0 0.00 0.00 0.00 82 1016.7
20211207231855 73 112 0.0 1.0 0.00 0.00 0.00 83 1016.7
20211207231550 73 112 1.0 2.0 0.00 0.00 0.00 82 1016.7
20211207231245 73 112 0.0 2.0 0.00 0.00 0.00 82 1016.6
20211207230940 72 112 1.0 2.0 0.00 0.00 0.00 82 1016.6
20211207230635 72 112 0.0 1.0 0.00 0.00 0.00 82 1016.6
20211207230330 72 112 0.0 1.0 0.00 0.00 0.00 82 1016.5
20211207225720 72 112 1.0 1.0 0.00 0.00 0.00 82 1016.4
20211207225414 72 112 0.0 1.0 0.00 0.00 0.00 82 1016.4
20211207225109 72 112 0.0 1.0 0.00 0.00 0.00 82 1016.4
20211207224804 72 112 1.0 3.0 0.00 0.00 0.00 82 1016.4
20211207224459 72 112 0.0 0.0 0.00 0.00 0.00 81 1016.4
20211207224154 72 112 1.0 2.0 0.00 0.00 0.00 82 1016.3
20211207223849 72 112 0.0 1.0 0.00 0.00 0.00 81 1016.3
20211207223544 72 112 0.0 2.0 0.00 0.00 0.00 81 1016.3
20211207222931 72 112 0.0 0.0 0.00 0.00 0.00 81 1016.3
20211207222625 72 112 0.0 0.0 0.00 0.00 0.00 81 1016.4
20211207222320 72 112 0.0 0.0 0.00 0.00 0.00 81 1016.3
20211207222015 72 112 0.0 1.0 0.00 0.00 0.00 81 1016.3
20211207221710 72 112 1.0 1.0 0.00 0.00 0.00 81 1016.3
20211207221405 72 112 0.0 0.0 0.00 0.00 0.00 81 1016.2
20211207221100 72 112 0.0 0.0 0.00 0.00 0.00 81 1016.1
20211207220755 73 112 0.0 1.0 0.00 0.00 0.00 81 1016.1
20211207220450 73 112 0.0 0.0 0.00 0.00 0.00 81 1016.1
20211207220144 73 112 0.0 1.0 0.00 0.00 0.00 81 1016.1
20211207215839 72 112 0.0 0.0 0.00 0.00 0.00 81 1016.0
20211207215534 72 112 1.0 2.0 0.00 0.00 0.00 81 1016.0
20211207215228 72 112 1.0 1.0 0.00 0.00 0.00 81 1016.0
20211207214923 72 112 0.0 0.0 0.00 0.00 0.00 81 1016.0
20211207214618 72 112 0.0 1.0 0.00 0.00 0.00 81 1015.9
20211207214313 72 112 0.0 3.0 0.00 0.00 0.00 81 1016.0
20211207214008 72 112 0.0 1.0 0.00 0.00 0.00 81 1015.8
20211207213703 72 112 0.0 1.0 0.00 0.00 0.00 81 1015.9
20211207213357 72 112 0.0 0.0 0.00 0.00 0.00 81 1015.9
20211207213052 72 112 0.0 1.0 0.00 0.00 0.00 81 1015.9
20211207212747 72 112 0.0 2.0 0.00 0.00 0.00 81 1015.9
20211207212442 72 112 0.0 0.0 0.00 0.00 0.00 80 1015.9
20211207212137 72 112 0.0 1.0 0.00 0.00 0.00 80 1015.9
20211207211832 72 112 0.0 0.0 0.00 0.00 0.00 80 1015.9
20211207211527 72 112 0.0 1.0 0.00 0.00 0.00 80 1016.0
20211207211222 72 112 0.0 0.0 0.00 0.00 0.00 80 1015.9
20211207210917 72 112 0.0 0.0 0.00 0.00 0.00 80 1015.9
20211207210611 72 112 0.0 0.0 0.00 0.00 0.00 80 1015.9
20211207210306 72 112 0.0 0.0 0.00 0.00 0.00 80 1016.0
20211207210001 72 112 0.0 1.0 0.00 0.00 0.00 80 1016.0
20211207205656 72 112 1.0 1.0 0.00 0.00 0.00 80 1015.9
20211207205351 72 112 0.0 0.0 0.00 0.00 0.00 80 1015.9
20211207205046 72 112 0.0 0.0 0.00 0.00 0.00 80 1015.8
20211207204741 72 112 0.0 0.0 0.00 0.00 0.00 80 1015.9
20211207204436 72 112 0.0 0.0 0.00 0.00 0.00 80 1015.8
20211207204131 72 112 0.0 0.0 0.00 0.00 0.00 80 1015.7
20211207203825 72 112 0.0 0.0 0.00 0.00 0.00 80 1015.9
20211207203520 72 112 0.0 0.0 0.00 0.00 0.00 80 1015.8
20211207203215 72 112 0.0 0.0 0.00 0.00 0.00 80 1015.8
20211207202910 72 112 0.0 1.0 0.00 0.00 0.00 80 1015.7
20211207202605 72 112 0.0 1.0 0.00 0.00 0.00 80 1015.8
20211207202259 72 112 1.0 1.0 0.00 0.00 0.00 80 1015.8
20211207201954 72 112 0.0 1.0 0.00 0.00 0.00 80 1016.0
20211207201649 72 112 0.0 1.0 0.00 0.00 0.00 80 1015.9
20211207201343 72 112 0.0 0.0 0.00 0.00 0.00 79 1016.0
20211207201038 72 112 0.0 0.0 0.00 0.00 0.00 80 1015.9
20211207200733 72 112 0.0 0.0 0.00 0.00 0.00 79 1015.9
20211207200428 72 112 0.0 0.0 0.00 0.00 0.00 79 1016.0
20211207200123 72 112 0.0 0.0 0.00 0.00 0.00 79 1016.0
20211207195818 72 112 0.0 0.0 0.00 0.00 0.00 79 1016.0
20211207195513 72 112 0.0 0.0 0.00 0.00 0.00 79 1016.1
20211207195208 72 112 0.0 0.0 0.00 0.00 0.00 79 1016.1
20211207194903 72 112 0.0 0.0 0.00 0.00 0.00 79 1016.0
20211207194558 72 112 0.0 1.0 0.00 0.00 0.00 79 1016.1
20211207194252 72 112 0.0 0.0 0.00 0.00 0.00 79 1016.0
20211207193947 72 112 0.0 0.0 0.00 0.00 0.00 79 1016.1
20211207193642 72 112 0.0 0.0 0.00 0.00 0.00 79 1016.2
20211207193337 72 112 0.0 0.0 0.00 0.00 0.00 79 1016.1
20211207193032 72 112 0.0 0.0 0.00 0.00 0.00 78 1016.2
20211207192727 72 112 0.0 0.0 0.00 0.00 0.00 78 1016.3
20211207192422 72 112 0.0 0.0 0.00 0.00 0.00 79 1016.3
20211207192117 72 112 0.0 0.0 0.00 0.00 0.00 78 1016.4
20211207191811 72 112 0.0 0.0 0.00 0.00 0.00 78 1016.4
20211207191506 72 112 0.0 0.0 0.00 0.00 0.00 78 1016.3
20211207191201 72 112 0.0 0.0 0.00 0.00 0.00 78 1016.4
20211207190856 72 112 0.0 0.0 0.00 0.00 0.00 78 1016.4
20211207190551 72 112 0.0 0.0 0.00 0.00 0.00 78 1016.4
20211207190246 72 112 0.0 0.0 0.00 0.00 0.00 78 1016.4
20211207185941 72 112 0.0 0.0 0.00 0.00 0.00 78 1016.5
20211207185636 72 112 0.0 0.0 0.00 0.00 0.00 78 1016.5
20211207185331 72 112 0.0 0.0 0.00 0.00 0.00 78 1016.4
20211207185025 72 112 0.0 0.0 0.00 0.00 0.00 78 1016.4
20211207184719 72 112 0.0 0.0 0.00 0.00 0.00 78 1016.3
20211207184414 72 112 0.0 0.0 0.00 0.00 0.00 78 1016.5
20211207184109 72 112 0.0 0.0 0.00 0.00 0.00 78 1016.4
20211207183804 72 112 0.0 0.0 0.00 0.00 0.00 78 1016.4
20211207183459 72 112 0.0 0.0 0.00 0.00 0.00 78 1016.4
20211207183154 72 112 0.0 0.0 0.00 0.00 0.00 78 1016.5
20211207182849 72 112 0.0 0.0 0.00 0.00 0.00 78 1016.6
20211207182544 72 112 0.0 0.0 0.00 0.00 0.00 78 1016.5
20211207182238 73 112 0.0 0.0 0.00 0.00 0.00 78 1016.6
20211207181933 73 112 0.0 0.0 0.00 0.00 0.00 78 1016.5
20211207181628 73 112 0.0 0.0 0.00 0.00 0.00 78 1016.6
20211207181323 73 112 0.0 0.0 0.00 0.00 0.00 78 1016.7
20211207181018 73 112 0.0 0.0 0.00 0.00 0.00 78 1016.6
20211207180713 73 112 0.0 0.0 0.00 0.00 0.00 78 1016.7
20211207180408 73 112 0.0 0.0 0.00 0.00 0.00 78 1016.7
20211207180103 73 112 0.0 0.0 0.00 0.00 0.00 78 1016.7
20211207175758 73 112 0.0 0.0 0.00 0.00 0.00 78 1016.8
20211207175452 73 112 0.0 0.0 0.00 0.00 0.00 78 1016.8
20211207175147 73 112 0.0 0.0 0.00 0.00 0.00 78 1016.8
20211207174842 73 112 0.0 0.0 0.00 0.00 0.00 78 1016.8
20211207174537 73 112 0.0 0.0 0.00 0.00 0.00 78 1016.8
20211207174232 73 112 0.0 0.0 0.00 0.00 0.00 78 1016.8
20211207173927 73 112 0.0 0.0 0.00 0.00 0.00 77 1016.8
20211207173622 73 112 0.0 1.0 0.00 0.00 0.00 77 1016.8
20211207173317 73 112 0.0 0.0 0.00 0.00 0.00 77 1016.9
20211207173012 73 112 0.0 0.0 0.00 0.00 0.00 77 1016.9
20211207172706 73 112 0.0 0.0 0.00 0.00 0.00 77 1016.9
20211207172401 73 112 0.0 0.0 0.00 0.00 0.00 77 1017.0
20211207172056 73 112 0.0 0.0 0.00 0.00 0.00 77 1017.0
20211207171751 73 112 0.0 0.0 0.00 0.00 0.00 77 1017.0
20211207171445 73 112 0.0 0.0 0.00 0.00 0.00 77 1016.9
20211207171140 73 112 0.0 0.0 0.00 0.00 0.00 77 1016.9
20211207170835 73 112 0.0 0.0 0.00 0.00 0.00 77 1017.0
20211207170222 73 112 0.0 0.0 0.00 0.00 0.00 77 1017.0
20211207165916 73 112 0.0 0.0 0.00 0.00 0.00 77 1017.0
20211207165611 73 112 0.0 1.0 0.00 0.00 0.00 77 1017.0
20211207165306 73 112 0.0 1.0 0.00 0.00 0.00 77 1017.0
20211207165001 73 112 0.0 0.0 0.00 0.00 0.00 77 1017.0
20211207164656 73 112 0.0 0.0 0.00 0.00 0.00 76 1017.1
20211207164351 73 112 0.0 0.0 0.00 0.00 0.00 77 1017.2
20211207164046 73 112 0.0 0.0 0.00 0.00 0.00 76 1017.1
20211207163741 74 112 0.0 0.0 0.00 0.00 0.00 76 1017.1
20211207163436 74 112 0.0 0.0 0.00 0.00 0.00 76 1017.1
20211207163130 74 112 0.0 0.0 0.00 0.00 0.00 76 1017.1
20211207162825 74 112 0.0 0.0 0.00 0.00 0.00 76 1017.1
20211207162520 74 112 0.0 0.0 0.00 0.00 0.00 76 1017.1
20211207162215 74 112 0.0 0.0 0.00 0.00 0.00 76 1017.2
20211207161910 74 112 0.0 1.0 0.00 0.00 0.00 76 1017.1
20211207161605 74 112 0.0 0.0 0.00 0.00 0.00 76 1017.2
20211207161300 74 112 0.0 0.0 0.00 0.00 0.00 76 1017.1
20211207160955 74 112 0.0 0.0 0.00 0.00 0.00 76 1017.2
20211207160649 74 112 0.0 0.0 0.00 0.00 0.00 76 1017.2
20211207160344 74 112 0.0 0.0 0.00 0.00 0.00 76 1017.2
20211207160039 74 112 0.0 0.0 0.00 0.00 0.00 76 1017.4
20211207155429 74 112 0.0 1.0 0.00 0.00 0.00 76 1017.4
20211207155124 74 112 0.0 1.0 0.00 0.00 0.00 76 1017.4
20211207154819 75 112 0.0 1.0 0.00 0.00 0.00 76 1017.4
20211207154513 75 112 0.0 1.0 0.00 0.00 0.00 75 1017.4
20211207154208 75 112 0.0 1.0 0.00 0.00 0.00 75 1017.4
20211207153902 75 112 0.0 1.0 0.00 0.00 0.00 75 1017.3
20211207153557 75 112 0.0 2.0 0.00 0.00 0.00 75 1017.3
20211207153252 75 112 0.0 2.0 0.00 0.00 0.00 75 1017.3
20211207152639 75 112 0.0 1.0 0.00 0.00 0.00 75 1017.3
20211207152334 75 112 0.0 2.0 0.00 0.00 0.00 75 1017.3
20211207152029 75 112 2.0 2.0 0.00 0.00 0.00 75 1017.4
20211207151724 75 112 0.0 1.0 0.00 0.00 0.00 75 1017.4
20211207151419 75 112 0.0 3.0 0.00 0.00 0.00 75 1017.4
20211207151114 75 112 1.0 1.0 0.00 0.00 0.00 75 1017.4
20211207150808 75 112 0.0 0.0 0.00 0.00 0.00 75 1017.4
20211207150503 75 112 0.0 0.0 0.00 0.00 0.00 75 1017.4
20211207150158 75 112 0.0 1.0 0.00 0.00 0.00 75 1017.4
20211207145853 75 112 1.0 1.0 0.00 0.00 0.00 75 1017.5
20211207145548 75 112 0.0 1.0 0.00 0.00 0.00 75 1017.4
20211207145243 75 112 1.0 1.0 0.00 0.00 0.00 74 1017.4
20211207144938 75 112 1.0 2.0 0.00 0.00 0.00 74 1017.3
20211207144633 75 112 0.0 1.0 0.00 0.00 0.00 74 1017.4
20211207144327 75 112 0.0 2.0 0.00 0.00 0.00 75 1017.3
20211207144022 75 112 2.0 2.0 0.00 0.00 0.00 74 1017.3
20211207143717 75 112 0.0 1.0 0.00 0.00 0.00 74 1017.2
20211207143412 75 112 0.0 3.0 0.00 0.00 0.00 74 1017.4
20211207143107 75 112 3.0 3.0 0.00 0.00 0.00 74 1017.3
20211207142802 75 112 0.0 1.0 0.00 0.00 0.00 74 1017.3
20211207142457 75 112 0.0 1.0 0.00 0.00 0.00 73 1017.3
20211207142152 75 112 0.0 1.0 0.00 0.00 0.00 73 1017.3
20211207141847 75 112 0.0 0.0 0.00 0.00 0.00 73 1017.3
20211207141541 75 112 0.0 0.0 0.00 0.00 0.00 73 1017.3
20211207141236 76 112 0.0 1.0 0.00 0.00 0.00 73 1017.2
20211207140930 76 112 0.0 0.0 0.00 0.00 0.00 73 1017.2
20211207140625 76 112 0.0 1.0 0.00 0.00 0.00 73 1017.1
20211207140320 76 112 0.0 1.0 0.00 0.00 0.00 73 1017.1
20211207140015 76 112 0.0 0.0 0.00 0.00 0.00 73 1017.2
20211207135710 76 112 0.0 0.0 0.00 0.00 0.00 72 1017.1
20211207135405 76 112 0.0 1.0 0.00 0.00 0.00 72 1017.2
20211207135059 76 112 0.0 2.0 0.00 0.00 0.00 72 1017.1
20211207134754 76 112 1.0 1.0 0.00 0.00 0.00 72 1017.1
20211207134449 76 112 0.0 2.0 0.00 0.00 0.00 72 1017.0
20211207134144 76 112 1.0 2.0 0.00 0.00 0.00 72 1016.9
20211207133839 76 112 0.0 1.0 0.00 0.00 0.00 72 1016.9
20211207133534 76 112 0.0 1.0 0.00 0.00 0.00 72 1016.8
20211207133229 76 112 0.0 1.0 0.00 0.00 0.00 72 1016.8
20211207132924 76 112 0.0 2.0 0.00 0.00 0.00 72 1016.8
20211207132619 76 112 0.0 2.0 0.00 0.00 0.00 72 1016.8
20211207132313 76 112 1.0 1.0 0.00 0.00 0.00 71 1016.7
20211207132008 76 112 0.0 3.0 0.00 0.00 0.00 71 1016.7
20211207131703 76 112 0.0 2.0 0.00 0.00 0.00 71 1016.6
20211207131358 76 112 1.0 1.0 0.00 0.00 0.00 70 1016.6
20211207131053 76 112 1.0 2.0 0.00 0.00 0.00 70 1016.6
20211207130748 76 112 0.0 2.0 0.00 0.00 0.00 70 1016.5
20211207130443 76 112 1.0 1.0 0.00 0.00 0.00 70 1016.6
20211207130138 76 112 0.0 1.0 0.00 0.00 0.00 70 1016.4
20211207125833 76 112 0.0 2.0 0.00 0.00 0.00 69 1016.4
20211207125528 76 112 0.0 2.0 0.00 0.00 0.00 69 1016.4
20211207125222 77 112 1.0 2.0 0.00 0.00 0.00 69 1016.3
20211207124917 77 112 0.0 1.0 0.00 0.00 0.00 69 1016.3
20211207124612 77 112 0.0 0.0 0.00 0.00 0.00 68 1016.3
20211207124307 77 112 0.0 1.0 0.00 0.00 0.00 69 1016.1
20211207124001 77 112 0.0 1.0 0.00 0.00 0.00 69 1016.1
20211207123656 77 112 1.0 2.0 0.00 0.00 0.00 68 1016.1
20211207123351 77 112 1.0 2.0 0.00 0.00 0.00 68 1016.0
20211207123046 78 112 0.0 1.0 0.00 0.00 0.00 68 1016.0
20211207122740 78 112 0.0 0.0 0.00 0.00 0.00 67 1016.0
20211207122435 78 112 0.0 1.0 0.00 0.00 0.00 67 1015.9
20211207122130 78 112 0.0 1.0 0.00 0.00 0.00 67 1015.8
20211207121825 78 112 0.0 1.0 0.00 0.00 0.00 67 1015.9
20211207121520 78 112 0.0 2.0 0.00 0.00 0.00 67 1015.7
20211207121215 78 112 0.0 1.0 0.00 0.00 0.00 67 1015.7
20211207120910 78 112 0.0 1.0 0.00 0.00 0.00 66 1015.6
20211207120605 79 112 1.0 1.0 0.00 0.00 0.00 66 1015.7
20211207120300 79 112 0.0 0.0 0.00 0.00 0.00 66 1015.6
20211207115954 79 112 0.0 1.0 0.00 0.00 0.00 66 1015.5
20211207115649 79 112 0.0 2.0 0.00 0.00 0.00 66 1015.5
20211207115344 79 112 1.0 1.0 0.00 0.00 0.00 66 1015.5
20211207115039 79 112 1.0 1.0 0.00 0.00 0.00 66 1015.4
20211207114734 79 112 0.0 3.0 0.00 0.00 0.00 65 1015.4
20211207114429 80 112 0.0 3.0 0.00 0.00 0.00 65 1015.4
20211207114124 80 112 0.0 1.0 0.00 0.00 0.00 65 1015.4
20211207113819 80 112 1.0 1.0 0.00 0.00 0.00 65 1015.4
20211207113514 80 112 2.0 3.0 0.00 0.00 0.00 64 1015.4
20211207113208 81 112 1.0 3.0 0.00 0.00 0.00 64 1015.3
20211207112903 81 112 0.0 3.0 0.00 0.00 0.00 64 1015.4
20211207112558 81 112 1.0 3.0 0.00 0.00 0.00 64 1015.3
20211207112253 81 112 1.0 3.0 0.00 0.00 0.00 64 1015.3
20211207111948 81 112 1.0 2.0 0.00 0.00 0.00 64 1015.2
20211207111643 81 112 0.0 2.0 0.00 0.00 0.00 63 1015.2
20211207111338 82 112 1.0 4.0 0.00 0.00 0.00 63 1015.2
20211207111033 82 112 0.0 4.0 0.00 0.00 0.00 63 1015.2
20211207110727 82 112 0.0 1.0 0.00 0.00 0.00 63 1015.1
20211207110421 82 112 1.0 2.0 0.00 0.00 0.00 63 1015.1
20211207110116 82 112 2.0 3.0 0.00 0.00 0.00 62 1015.1
20211207105811 83 112 0.0 2.0 0.00 0.00 0.00 62 1015.1
20211207105506 83 112 0.0 2.0 0.00 0.00 0.00 62 1015.0
20211207105201 83 112 0.0 2.0 0.00 0.00 0.00 62 1015.1
20211207104856 83 112 1.0 2.0 0.00 0.00 0.00 62 1015.1
20211207104551 83 112 2.0 3.0 0.00 0.00 0.00 61 1015.1
20211207104246 84 112 0.0 2.0 0.00 0.00 0.00 61 1015.1
20211207103941 84 112 1.0 4.0 0.00 0.00 0.00 61 1015.0
20211207103635 84 112 3.0 4.0 0.00 0.00 0.00 61 1015.0
20211207103330 84 112 1.0 2.0 0.00 0.00 0.00 61 1014.9
20211207103025 84 112 0.0 4.0 0.00 0.00 0.00 60 1014.9
20211207102720 85 112 4.0 5.0 0.00 0.00 0.00 60 1014.9
20211207102415 85 112 2.0 6.0 0.00 0.00 0.00 60 1014.9
20211207102110 85 112 3.0 6.0 0.00 0.00 0.00 60 1014.8
20211207101805 85 112 2.0 5.0 0.00 0.00 0.00 60 1014.8
20211207101500 85 112 2.0 4.0 0.00 0.00 0.00 59 1014.7
20211207101155 85 112 1.0 9.0 0.00 0.00 0.00 59 1014.7
20211207100849 86 112 6.0 9.0 0.00 0.00 0.00 59 1014.7
20211207100544 86 112 3.0 7.0 0.00 0.00 0.00 59 1014.7
20211207100239 86 112 3.0 7.0 0.00 0.00 0.00 59 1014.7
20211207095934 86 112 1.0 6.0 0.00 0.00 0.00 59 1014.7
20211207095629 86 112 3.0 3.0 0.00 0.00 0.00 59 1014.7
20211207095324 86 112 3.0 8.0 0.00 0.00 0.00 58 1014.6
20211207095019 86 112 3.0 7.0 0.00 0.00 0.00 58 1014.6
20211207094714 86 112 2.0 9.0 0.00 0.00 0.00 58 1014.5
20211207094409 86 112 3.0 6.0 0.00 0.00 0.00 57 1014.6
20211207094103 87 112 2.0 6.0 0.00 0.00 0.00 57 1014.5
20211207093758 87 112 4.0 6.0 0.00 0.00 0.00 57 1014.5
20211207093453 87 112 5.0 5.0 0.00 0.00 0.00 57 1014.5
20211207093147 87 112 1.0 7.0 0.00 0.00 0.00 57 1014.6
20211207092842 87 112 7.0 7.0 0.00 0.00 0.00 56 1014.6
20211207092537 87 112 3.0 8.0 0.00 0.00 0.00 56 1014.5
20211207092232 87 112 4.0 6.0 0.00 0.00 0.00 56 1014.6
20211207091927 88 112 4.0 7.0 0.00 0.00 0.00 55 1014.7
20211207091622 88 112 3.0 6.0 0.00 0.00 0.00 55 1014.7
20211207091316 88 112 5.0 8.0 0.00 0.00 0.00 54 1014.7
20211207091011 88 112 3.0 8.0 0.00 0.00 0.00 54 1014.7
20211207090706 88 112 2.0 7.0 0.00 0.00 0.00 54 1014.7
20211207090401 89 112 2.0 5.0 0.00 0.00 0.00 53 1014.7
20211207090056 89 112 3.0 5.0 0.00 0.00 0.00 53 1014.7
20211207085751 90 112 4.0 8.0 0.00 0.00 0.00 52 1014.7
20211207085446 90 112 7.0 8.0 0.00 0.00 0.00 52 1014.8
20211207085141 90 112 8.0 8.0 0.00 0.00 0.00 51 1014.7
20211207084836 91 112 2.0 9.0 0.00 0.00 0.00 51 1014.7
20211207084530 92 112 9.0 9.0 0.00 0.00 0.00 50 1014.7
20211207084225 92 112 5.0 9.0 0.00 0.00 0.00 50 1014.7
20211207083920 93 112 8.0 10.0 0.00 0.00 0.00 50 1014.7
20211207083615 93 112 5.0 8.0 0.00 0.00 0.00 51 1014.6
20211207083310 93 112 5.0 7.0 0.00 0.00 0.00 51 1014.7
20211207083005 93 112 7.0 7.0 0.00 0.00 0.00 51 1014.7
20211207082700 93 112 1.0 7.0 0.00 0.00 0.00 50 1014.7
20211207082355 93 112 4.0 10.0 0.00 0.00 0.00 50 1014.7
20211207082050 94 112 4.0 9.0 0.00 0.00 0.00 50 1014.8
20211207081744 94 112 5.0 10.0 0.00 0.00 0.00 50 1014.7
20211207081439 94 112 4.0 6.0 0.00 0.00 0.00 51 1014.8
20211207081134 94 112 5.0 6.0 0.00 0.00 0.00 51 1014.8
20211207080829 94 112 5.0 9.0 0.00 0.00 0.00 51 1014.7
20211207080524 94 112 1.0 9.0 0.00 0.00 0.00 51 1014.8
20211207080218 94 112 3.0 7.0 0.00 0.00 0.00 52 1014.8
20211207075913 94 112 5.0 7.0 0.00 0.00 0.00 52 1014.9
20211207075608 93 112 4.0 8.0 0.00 0.00 0.00 53 1014.9
20211207075306 93 112 6.0 10.0 0.00 0.00 0.00 53 1015.0
20211207074957 92 112 10.0 10.0 0.00 0.00 0.00 54 1015.0
20211207074652 92 112 5.0 5.0 0.00 0.00 0.00 54 1015.0
20211207074347 92 112 3.0 5.0 0.00 0.00 0.00 53 1015.0
20211207074042 92 112 1.0 6.0 0.00 0.00 0.00 53 1015.1
20211207073737 92 112 6.0 9.0 0.00 0.00 0.00 53 1015.1
20211207073432 92 112 3.0 8.0 0.00 0.00 0.00 53 1015.2
20211207073127 91 112 1.0 8.0 0.00 0.00 0.00 53 1015.3
20211207072822 91 112 4.0 9.0 0.00 0.00 0.00 53 1015.3
20211207072517 91 112 4.0 8.0 0.00 0.00 0.00 53 1015.3
20211207072211 92 112 4.0 8.0 0.00 0.00 0.00 52 1015.4
20211207071906 92 112 4.0 7.0 0.00 0.00 0.00 52 1015.4
20211207071601 92 112 4.0 7.0 0.00 0.00 0.00 51 1015.5
20211207071256 93 112 2.0 7.0 0.00 0.00 0.00 51 1015.5
20211207070951 93 112 7.0 7.0 0.00 0.00 0.00 51 1015.5
20211207070646 93 112 3.0 4.0 0.00 0.00 0.00 51 1015.5
20211207070341 93 112 3.0 11.0 0.00 0.00 0.00 50 1015.6
20211207070036 94 112 2.0 5.0 0.00 0.00 0.00 49 1015.6
20211207065731 95 112 3.0 6.0 0.00 0.00 0.00 49 1015.7
20211207065426 95 112 4.0 6.0 0.00 0.00 0.00 49 1015.6
20211207065120 95 112 5.0 6.0 0.00 0.00 0.00 49 1015.7
20211207064815 96 112 4.0 7.0 0.00 0.00 0.00 48 1015.7
20211207064510 96 112 4.0 12.0 0.00 0.00 0.00 48 1015.8
20211207064205 96 112 6.0 7.0 0.00 0.00 0.00 48 1015.9
20211207063900 96 112 6.0 7.0 0.00 0.00 0.00 48 1015.8
20211207063555 96 112 5.0 7.0 0.00 0.00 0.00 48 1015.8
20211207063250 96 112 5.0 7.0 0.00 0.00 0.00 48 1015.9
20211207062944 96 112 3.0 7.0 0.00 0.00 0.00 48 1016.0
20211207062638 96 112 1.0 6.0 0.00 0.00 0.00 47 1015.9
20211207062333 96 112 2.0 6.0 0.00 0.00 0.00 47 1015.9
20211207062028 96 112 3.0 6.0 0.00 0.00 0.00 47 1016.1
20211207061723 97 112 4.0 6.0 0.00 0.00 0.00 46 1016.1
20211207061418 97 112 3.0 5.0 0.00 0.00 0.00 46 1016.1
20211207061113 98 112 7.0 9.0 0.00 0.00 0.00 45 1016.2
20211207060808 99 112 6.0 9.0 0.00 0.00 0.00 45 1016.3
20211207060503 99 112 9.0 9.0 0.00 0.00 0.00 45 1016.3
20211207060158 99 112 2.0 6.0 0.00 0.00 0.00 45 1016.3
20211207055853 100 112 3.0 7.0 0.00 0.00 0.00 45 1016.3
20211207055547 100 112 4.0 7.0 0.00 0.00 0.00 45 1016.4
20211207055242 99 112 5.0 6.0 0.00 0.00 0.00 45 1016.5
20211207054937 99 112 4.0 5.0 0.00 0.00 0.00 46 1016.5
20211207054632 99 112 2.0 4.0 0.00 0.00 0.00 46 1016.7
20211207054327 98 112 1.0 6.0 0.00 0.00 0.00 46 1016.6
20211207054022 98 112 4.0 5.0 0.00 0.00 0.00 46 1016.7
20211207053717 98 112 2.0 7.0 0.00 0.00 0.00 46 1016.8
20211207053412 97 112 6.0 6.0 0.00 0.00 0.00 46 1016.7
20211207053106 97 112 3.0 10.0 0.00 0.00 0.00 46 1016.8
20211207052801 97 112 8.0 10.0 0.00 0.00 0.00 46 1016.8
20211207052456 97 112 2.0 7.0 0.00 0.00 0.00 47 1016.9
20211207052151 97 112 3.0 8.0 0.00 0.00 0.00 47 1017.0
20211207051846 97 112 6.0 6.0 0.00 0.00 0.00 47 1017.1
20211207051541 97 112 0.0 6.0 0.00 0.00 0.00 46 1017.0
20211207051236 97 112 3.0 6.0 0.00 0.00 0.00 46 1017.1
20211207050931 98 112 5.0 6.0 0.00 0.00 0.00 46 1017.2
20211207050626 98 112 3.0 6.0 0.00 0.00 0.00 45 1017.2
20211207050321 99 112 3.0 6.0 0.00 0.00 0.00 45 1017.2
20211207050015 99 112 0.0 4.0 0.00 0.00 0.00 45 1017.2
20211207045710 99 112 3.0 4.0 0.00 0.00 0.00 45 1017.2
20211207045404 99 112 2.0 4.0 0.00 0.00 0.00 46 1017.3
20211207045059 99 112 1.0 3.0 0.00 0.00 0.00 46 1017.3
20211207044446 98 112 2.0 6.0 0.00 0.00 0.00 45 1017.6
20211207044141 99 112 3.0 6.0 0.00 0.00 0.00 45 1017.6
20211207043836 99 112 0.0 7.0 0.00 0.00 0.00 44 1017.7
20211207043531 99 112 4.0 7.0 0.00 0.00 0.00 45 1017.7
20211207043225 99 112 3.0 4.0 0.00 0.00 0.00 45 1017.6
20211207042920 99 112 2.0 5.0 0.00 0.00 0.00 45 1017.6
20211207042615 98 112 5.0 8.0 0.00 0.00 0.00 45 1017.7
20211207042310 98 112 7.0 8.0 0.00 0.00 0.00 46 1017.8
20211207042005 98 112 3.0 7.0 0.00 0.00 0.00 46 1017.8
20211207041700 98 112 2.0 8.0 0.00 0.00 0.00 46 1017.9
20211207041355 98 112 1.0 4.0 0.00 0.00 0.00 46 1018.0
20211207041050 99 112 2.0 8.0 0.00 0.00 0.00 46 1018.1
20211207040745 99 112 3.0 8.0 0.00 0.00 0.00 46 1018.2
20211207040439 98 112 1.0 7.0 0.00 0.00 0.00 47 1018.2
20211207040134 98 112 4.0 7.0 0.00 0.00 0.00 47 1018.2
20211207035829 98 112 0.0 3.0 0.00 0.00 0.00 47 1018.2
20211207035524 98 112 1.0 4.0 0.00 0.00 0.00 47 1018.2
20211207035219 98 112 6.0 6.0 0.00 0.00 0.00 48 1018.2
20211207034914 97 112 6.0 6.0 0.00 0.00 0.00 49 1018.2
20211207034609 97 112 3.0 5.0 0.00 0.00 0.00 49 1018.2
20211207034304 97 112 3.0 5.0 0.00 0.00 0.00 49 1018.3
20211207033959 97 112 2.0 3.0 0.00 0.00 0.00 48 1018.3
20211207033653 98 112 2.0 9.0 0.00 0.00 0.00 48 1018.4
20211207033348 98 112 3.0 7.0 0.00 0.00 0.00 49 1018.4
20211207033043 98 112 5.0 7.0 0.00 0.00 0.00 50 1018.3
20211207032738 98 112 2.0 6.0 0.00 0.00 0.00 50 1018.4
20211207032127 97 112 2.0 6.0 0.00 0.00 0.00 51 1018.4
20211207031822 97 112 4.0 4.0 0.00 0.00 0.00 52 1018.5
20211207031517 96 112 3.0 4.0 0.00 0.00 0.00 53 1018.4
20211207031212 96 112 2.0 4.0 0.00 0.00 0.00 53 1018.4
20211207030906 95 112 2.0 10.0 0.00 0.00 0.00 54 1018.4
20211207030601 95 112 1.0 7.0 0.00 0.00 0.00 55 1018.4
20211207030256 95 112 1.0 4.0 0.00 0.00 0.00 55 1018.4
20211207025951 94 112 1.0 4.0 0.00 0.00 0.00 55 1018.4
20211207025646 94 112 1.0 7.0 0.00 0.00 0.00 56 1018.4
20211207025341 94 112 1.0 7.0 0.00 0.00 0.00 57 1018.4
20211207025036 94 112 4.0 7.0 0.00 0.00 0.00 57 1018.4
20211207024731 94 112 4.0 7.0 0.00 0.00 0.00 58 1018.4